QPF
0.00 0.00 0.00 0.00 0.00 0.00 0.00 0.00 0.00 0.00 0.00 0.00 0.00 0.00 0.00 0.00 0.00 0.00 0.00 0.00 0.00 0.00 0.00 0.00 0.00 0.00 0.00 0.00 0.00 0.00 0.00 0.00 0.00 0.00 0.00 0.00 0.00 0.00 0.00 0.00 0.00 0.00 0.00 0.00
0.00 0.00 0.00 0.00 0.00 0.00 0.00 0.00 0.00 0.00 0.00 0.00 0.00 0.00 0.00 0.00 0.00 0.00 0.00 0.00 0.00 0.00 0.00 0.00 0.00 0.00 0.00 0.00 0.00 0.00 0.00 0.00 0.00 0.00 0.00 0.00 0.00 0.00 0.00 0.00 0.00 0.00 0.00 0.00
0.00 0.00 0.00 0.00 0.00 0.00 0.00 0.00 0.00 0.00 0.00 0.00 0.00 0.00 0.00 0.00 0.00 0.00 0.00 0.00 0.00 0.00 0.00 0.00 0.00 0.00 0.00 0.00 0.00 0.00 0.00 0.00 0.00 0.00 0.00 0.00 0.00 0.00 0.00 0.00 0.00 0.00 0.00 0.00
0.00 0.00 0.00 0.00 0.00 0.00 0.00 0.00 0.00 0.00 0.00 0.00 0.00 0.00 0.00 0.00 0.00 0.00 0.00 0.00 0.00 0.00 0.00 0.00 0.00 0.00 0.00 0.00 0.00 0.00 0.00 0.00 0.00 0.00 0.00 0.00 0.00 0.00 0.00 0.00 0.00 0.00 0.00 0.00
0.00 0.00 0.00 0.00 0.00 0.00 0.00 0.00 0.00 0.00 0.00 0.00 0.00 0.00 0.00 0.00 0.00 0.00 0.00 0.00 0.00 0.00 0.00 0.00 0.00 0.00 0.00 0.00 0.00 0.00 0.00 0.00 0.00 0.00 0.00 0.00 0.00 0.00 0.00 0.00 0.00 0.00 0.00 0.00
0.00 0.00 0.00 0.00 0.00 0.00 0.00 0.00 0.00 0.00 0.00 0.00 0.00 0.00 0.00 0.00 0.00 0.00 0.00 0.00 0.00 0.00 0.00 0.00 0.00 0.00 0.00 0.00 0.00 0.00 0.00 0.00 0.00 0.00 0.00 0.00 0.00 0.00 0.00 0.00 0.00 0.00 0.00 0.00
0.00 0.00 0.00 0.00 0.00 0.00 0.00 0.00 0.00 0.00 0.00 0.00 0.00 0.00 0.00 0.00 0.00 0.00 0.00 0.00 0.00 0.00 0.00 0.00 0.00 0.00 0.00 0.00 0.00 0.00 0.00 0.00 0.00 0.00 0.00 0.00 0.00 0.00 0.00 0.00 0.00 0.00 0.00 0.00
0.00 0.00 0.00 0.00 0.00 0.00 0.00 0.00 0.00 0.00 0.00 0.00 0.00 0.00 0.00 0.00 0.00 0.00 0.00 0.00 0.00 0.00 0.00 0.00 0.00 0.00 0.00 0.00 0.00 0.00 0.00 0.00 0.00 0.00 0.00 0.00 0.00 0.00 0.00 0.00 0.00 0.00 0.00 0.00
0.00 0.00 0.00 0.00 0.00 0.00 0.00 0.00 0.00 0.00 0.00 0.00 0.00 0.00 0.00 0.00 0.00 0.00 0.00 0.00 0.00 0.00 0.00 0.00 0.00 0.00 0.00 0.00 0.00 0.00 0.00 0.00 0.00 0.00 0.00 0.00 0.00 0.00 0.00 0.00 0.00 0.00 0.00 0.00
0.00 0.00 0.00 0.00 0.00 0.00 0.00 0.00 0.00 0.00 0.00 0.00 0.00 0.00 0.00 0.00 0.00 0.00 0.00 0.00 0.00 0.00 0.00 0.00 0.00 0.00 0.00 0.00 0.00 0.00 0.00 0.00 0.00 0.00 0.00 0.00 0.00 0.00 0.00 0.00 0.00 0.00 0.00 0.00
0.00 0.00 0.00 0.00 0.00 0.00 0.00 0.00 0.00 0.00 0.00 0.00 0.00 0.00 0.00 0.00 0.00 0.00 0.00 0.00 0.00 0.00 0.00 0.00 0.00 0.00 0.00 0.00 0.00 0.00 0.00 0.00 0.00 0.00 0.00 0.00 0.00 0.00 0.00 0.00 0.00 0.00 0.00 0.00
0.00 0.00 0.00 0.00 0.00 0.00 0.00 0.00 0.00 0.00 0.00 0.00 0.00 0.00 0.00 0.00 0.00 0.00 0.00 0.00 0.00 0.00 0.00 0.00 0.00 0.00 0.00 0.00 0.00 0.00 0.00 0.00 0.00 0.00 0.00 0.00 0.00 0.00 0.00 0.00 0.00 0.00 0.00 0.00
0.00 0.00 0.00 0.00 0.00 0.00 0.00 0.00 0.00 0.00 0.00 0.00 0.00 0.00 0.00 0.00 0.00 0.00 0.00 0.00 0.00 0.00 0.00 0.00 0.00 0.00 0.00 0.00 0.00 0.00 0.00 0.00 0.00 0.00 0.00 0.00 0.00 0.00 0.00 0.00 0.00 0.00 0.00 0.00
0.00 0.00 0.00 0.00 0.00 0.00 0.00 0.00 0.00 0.00 0.00 0.00 0.00 0.00 0.00 0.00 0.00 0.00 0.00 0.00 0.00 0.00 0.00 0.00 0.00 0.00 0.00 0.00 0.00 0.00 0.00 0.00 0.00 0.00 0.00 0.00 0.00 0.00 0.00 0.00 0.00 0.00 0.00 0.00
0.00 0.00 0.00 0.00 0.00 0.00 0.00 0.00 0.00 0.00 0.00 0.00 0.00 0.00 0.00 0.00 0.00 0.00 0.00 0.00 0.00 0.00 0.00 0.00 0.00 0.00 0.00 0.00 0.00 0.00 0.00 0.00 0.00 0.00 0.00 0.00 0.00 0.00 0.00 0.00 0.00 0.00 0.00 0.00
0.00 0.00 0.00 0.00 0.00 0.00 0.00 0.00 0.00 0.00 0.00 0.00 0.00 0.00 0.00 0.00 0.00 0.00 0.00 0.00 0.00 0.00 0.00 0.00 0.00 0.00 0.00 0.00 0.00 0.00 0.00 0.00 0.00 0.00 0.00 0.00 0.00 0.00 0.00 0.00 0.00 0.00 0.00 0.00
0.00 0.00 0.00 0.00 0.00 0.00 0.00 0.00 0.00 0.00 0.00 0.00 0.00 0.00 0.00 0.00 0.00 0.00 0.00 0.00 0.00 0.00 0.00 0.00 0.00 0.00 0.00 0.00 0.00 0.00 0.00 0.00 0.00 0.00 0.00 0.00 0.00 0.00 0.00 0.00 0.00 0.00 0.00 0.00
0.00 0.00 0.00 0.00 0.00 0.00 0.00 0.00 0.00 0.00 0.00 0.00 0.00 0.00 0.00 0.00 0.00 0.00 0.00 0.00 0.00 0.00 0.00 0.00 0.00 0.00 0.00 0.00 0.00 0.00 0.00 0.00 0.00 0.00 0.00 0.00 0.00 0.00 0.00 0.00 0.00 0.00 0.00 0.00
0.00 0.00 0.00 0.00 0.00 0.00 0.00 0.00 0.00 0.00 0.00 0.00 0.00 0.00 0.00 0.00 0.00 0.00 0.00 0.00 0.00 0.00 0.00 0.00 0.00 0.00 0.00 0.00 0.00 0.00 0.00 0.00 0.00 0.00 0.00 0.00 0.00 0.00 0.00 0.00 0.00 0.00 0.00 0.00
0.00 0.00 0.00 0.00 0.00 0.00 0.00 0.00 0.00 0.00 0.00 0.00 0.00 0.00 0.00 0.00 0.00 0.00 0.00 0.00 0.00 0.00 0.00 0.00 0.00 0.00 0.00 0.00 0.00 0.00 0.00 0.00 0.00 0.00 0.00 0.00 0.00 0.00 0.00 0.00 0.00 0.00 0.00 0.00
0.00 0.00 0.00 0.00 0.00 0.00 0.00 0.00 0.00 0.00 0.00 0.00 0.00 0.00 0.00 0.00 0.00 0.00 0.00 0.00 0.00 0.00 0.00 0.00 0.00 0.00 0.00 0.00 0.00 0.00 0.00 0.00 0.00 0.00 0.00 0.00 0.00 0.00 0.00 0.00 0.00 0.00 0.00 0.00
0.00 0.00 0.00 0.00 0.00 0.00 0.00 0.00 0.00 0.00 0.00 0.00 0.00 0.00 0.00 0.00 0.00 0.00 0.00 0.00 0.00 0.00 0.00 0.00 0.00 0.00 0.00 0.00 0.00 0.00 0.00 0.00 0.00 0.00 0.00 0.00 0.00 0.00 0.00 0.00 0.00 0.00 0.00 0.00
0.00 0.00 0.00 0.00 0.00 0.00 0.00 0.00 0.00 0.00 0.00 0.00 0.00 0.00 0.00 0.00 0.00 0.00 0.00 0.00 0.00 0.00 0.00 0.00 0.00 0.00 0.00 0.00 0.00 0.00 0.00 0.00 0.00 0.00 0.00 0.00 0.00 0.00 0.00 0.00 0.00 0.00 0.00 0.00
0.00 0.00 0.00 0.00 0.00 0.00 0.00 0.00 0.00 0.00 0.00 0.00 0.00 0.00 0.00 0.00 0.00 0.00 0.00 0.00 0.00 0.00 0.00 0.00 0.00 0.00 0.00 0.00 0.00 0.00 0.00 0.00 0.00 0.00 0.00 0.00 0.00 0.00 0.00 0.00 0.00 0.00 0.00 0.00
0.00 0.00 0.00 0.00 0.00 0.00 0.00 0.00 0.00 0.00 0.00 0.00 0.00 0.00 0.00 0.00 0.00 0.00 0.00 0.00 0.00 0.00 0.00 0.00 0.00 0.00 0.00 0.00 0.00 0.00 0.00 0.00 0.00 0.00 0.00 0.00 0.00 0.00 0.00 0.00 0.00 0.00 0.00 0.00
0.00 0.00 0.00 0.00 0.00 0.00 0.00 0.00 0.00 0.00 0.00 0.00 0.00 0.00 0.00 0.00 0.00 0.00 0.00 0.00 0.00 0.00 0.00 0.00 0.00 0.00 0.00 0.00 0.00 0.00 0.00 0.00 0.00 0.00 0.00 0.00 0.00 0.00 0.00 0.00 0.00 0.00 0.00 0.00
0.00 0.00 0.00 0.00 0.00 0.00 0.00 0.00 0.00 0.00 0.00 0.00 0.00 0.00 0.00 0.00 0.00 0.00 0.00 0.00 0.00 0.00 0.00 0.00 0.00 0.00 0.00 0.00 0.00 0.00 0.00 0.00 0.00 0.00 0.00 0.00 0.00 0.00 0.00 0.00 0.00 0.00 0.00 0.00
MSLP
1018.86 1018.20 1017.83 1017.16 1016.60 1016.57 1016.57 1016.10 1016.38 1013.61 1014.14 1012.77 1013.00 1012.85 1012.85 1013.01 1013.52 1014.12 1014.57 1015.07 1015.29 1015.49 1015.73 1016.01 1016.50 1017.01 1017.29 1017.46 1017.58 1017.61 1017.77 1017.79 1017.84 1017.73 1017.65 1017.57 1017.42 1017.20 1016.93 1016.65 1016.41 1016.23 1016.08 1015.94
1018.95 1018.10 1017.33 1016.32 1015.11 1014.80 1014.70 1014.67 1014.54 1013.95 1012.71 1012.28 1012.20 1012.03 1012.14 1012.15 1012.37 1012.87 1013.26 1013.71 1014.11 1014.62 1015.04 1015.60 1016.07 1016.58 1016.89 1017.21 1017.41 1017.53 1017.71 1017.84 1017.87 1017.89 1017.86 1017.77 1017.58 1017.38 1017.14 1016.96 1016.78 1016.61 1016.51 1016.34
1018.95 1018.25 1017.48 1015.40 1012.82 1012.69 1013.35 1013.51 1013.57 1013.42 1011.82 1012.05 1011.90 1011.79 1011.83 1011.89 1011.86 1011.89 1011.98 1012.32 1012.81 1013.44 1014.03 1014.64 1015.27 1015.72 1016.44 1016.84 1017.10 1017.30 1017.45 1017.53 1017.57 1017.60 1017.73 1017.71 1017.63 1017.58 1017.53 1017.37 1017.12 1016.97 1016.77 1016.53
1019.53 1018.83 1017.04 1013.23 1012.26 1012.04 1012.35 1012.37 1012.26 1011.85 1011.54 1011.60 1011.48 1011.31 1011.05 1011.12 1011.21 1011.38 1011.44 1011.62 1012.17 1012.68 1013.24 1013.91 1014.58 1015.38 1016.10 1016.58 1016.84 1017.05 1017.25 1017.38 1017.49 1017.56 1017.61 1017.54 1017.46 1017.44 1017.42 1017.31 1017.22 1017.06 1016.78 1016.47
1020.13 1018.83 1015.81 1013.12 1012.06 1012.17 1012.12 1011.34 1010.60 1010.65 1010.81 1010.93 1011.07 1011.29 1011.11 1010.83 1010.31 1010.82 1010.98 1011.13 1011.45 1012.06 1012.96 1013.86 1014.66 1015.31 1015.96 1016.45 1016.71 1016.96 1017.18 1017.37 1017.54 1017.62 1017.69 1017.69 1017.63 1017.53 1017.29 1017.15 1017.00 1016.80 1016.53 1016.29
1019.90 1019.08 1016.29 1012.75 1012.20 1012.00 1012.07 1011.21 1009.77 1009.99 1010.48 1010.82 1011.21 1011.61 1011.21 1010.99 1010.82 1010.80 1010.85 1011.22 1011.61 1012.15 1012.85 1013.82 1014.63 1015.29 1016.01 1016.52 1016.86 1017.10 1017.31 1017.48 1017.60 1017.71 1017.78 1017.79 1017.65 1017.52 1017.28 1017.05 1016.90 1016.66 1016.37 1016.06
1019.64 1018.81 1015.04 1012.24 1012.12 1012.32 1012.38 1010.82 1010.10 1010.38 1010.74 1011.06 1011.44 1011.29 1011.04 1011.01 1011.11 1011.31 1011.41 1011.70 1012.23 1012.89 1013.72 1014.36 1014.94 1015.58 1016.32 1016.70 1017.09 1017.32 1017.44 1017.56 1017.62 1017.66 1017.70 1017.62 1017.55 1017.40 1017.23 1017.00 1016.72 1016.48 1016.32 1015.89
1018.50 1017.51 1014.16 1011.45 1012.18 1011.92 1010.19 1009.74 1009.92 1010.10 1010.30 1010.77 1010.99 1011.09 1011.05 1011.16 1011.31 1011.63 1012.03 1012.34 1012.79 1013.48 1014.22 1014.78 1015.27 1015.85 1016.40 1016.67 1016.92 1017.19 1017.52 1017.69 1017.81 1017.72 1017.63 1017.45 1017.41 1017.22 1017.12 1017.02 1016.81 1016.60 1016.26 1015.94
1014.69 1012.41 1010.67 1010.21 1009.56 1009.69 1009.65 1009.95 1010.01 1010.17 1010.35 1010.59 1010.88 1011.09 1011.13 1011.19 1011.29 1011.57 1012.14 1012.70 1013.16 1013.71 1014.38 1014.88 1015.34 1015.84 1016.41 1016.69 1016.96 1017.27 1017.53 1017.71 1017.79 1017.71 1017.60 1017.42 1017.39 1017.26 1017.12 1017.00 1016.86 1016.62 1016.34 1016.04
1012.50 1009.92 1009.87 1009.78 1009.27 1009.10 1009.23 1009.40 1009.51 1009.80 1010.26 1010.64 1010.97 1011.02 1011.14 1011.24 1011.40 1011.67 1012.05 1012.65 1013.23 1013.88 1014.49 1015.09 1015.48 1015.93 1016.31 1016.69 1016.95 1017.27 1017.46 1017.59 1017.61 1017.62 1017.47 1017.26 1017.11 1017.06 1017.03 1016.83 1016.69 1016.51 1016.22 1016.01
1010.37 1009.46 1009.25 1008.69 1008.17 1008.14 1008.36 1008.55 1008.97 1009.47 1009.87 1010.31 1010.66 1010.83 1010.94 1010.96 1011.09 1011.36 1011.90 1012.66 1013.34 1013.94 1014.55 1015.10 1015.44 1015.90 1016.21 1016.46 1016.75 1017.11 1017.22 1017.31 1017.36 1017.36 1017.39 1017.32 1017.11 1016.92 1016.75 1016.49 1016.34 1016.02 1015.85 1015.70
1008.88 1008.32 1008.33 1007.93 1007.81 1007.89 1008.25 1008.54 1008.83 1009.20 1009.54 1009.85 1010.19 1010.42 1010.57 1010.70 1010.80 1011.20 1011.95 1012.73 1013.47 1013.98 1014.48 1014.91 1015.36 1015.83 1016.15 1016.31 1016.66 1017.00 1017.24 1017.29 1017.26 1017.18 1017.15 1017.09 1016.95 1016.65 1016.49 1016.17 1015.87 1015.66 1015.47 1015.18
1007.51 1007.69 1007.84 1007.85 1008.05 1008.10 1008.47 1008.76 1009.02 1009.31 1009.59 1009.96 1010.10 1010.20 1010.16 1010.34 1010.57 1011.13 1011.96 1012.66 1013.34 1013.91 1014.32 1014.79 1015.27 1015.73 1016.03 1016.25 1016.57 1016.95 1017.21 1017.26 1017.15 1017.06 1017.10 1017.04 1016.88 1016.70 1016.38 1015.95 1015.76 1015.48 1015.12 1014.68
1007.23 1007.43 1007.46 1007.68 1007.91 1008.13 1008.46 1008.80 1009.17 1009.53 1009.83 1010.04 1010.07 1009.98 1009.93 1010.17 1010.54 1011.03 1011.84 1012.59 1013.18 1013.73 1014.25 1014.64 1015.07 1015.41 1015.68 1016.08 1016.46 1016.72 1016.89 1016.97 1016.94 1016.94 1016.97 1016.86 1016.66 1016.46 1016.19 1015.92 1015.46 1015.07 1014.80 1014.49
1007.38 1007.33 1007.11 1007.55 1007.96 1008.35 1008.80 1009.33 1009.63 1009.79 1009.93 1009.97 1010.05 1010.18 1010.11 1010.47 1010.87 1011.24 1011.73 1012.39 1013.09 1013.72 1014.17 1014.56 1014.94 1015.20 1015.42 1015.89 1016.29 1016.51 1016.73 1016.74 1016.73 1016.64 1016.77 1016.72 1016.46 1016.21 1015.95 1015.65 1015.33 1014.87 1014.39 1014.07
1007.54 1007.53 1007.25 1007.40 1007.79 1008.29 1008.79 1009.26 1009.68 1009.73 1009.76 1009.94 1010.01 1010.38 1010.58 1010.85 1011.22 1011.58 1011.92 1012.48 1013.20 1013.70 1014.17 1014.47 1014.69 1014.94 1015.19 1015.63 1016.03 1016.29 1016.49 1016.32 1016.15 1016.32 1016.40 1016.48 1016.28 1016.01 1015.71 1015.40 1015.08 1014.66 1014.24 1013.87
1007.67 1008.00 1007.97 1007.89 1008.22 1008.46 1008.62 1008.83 1009.07 1009.31 1009.54 1009.85 1010.00 1010.26 1010.69 1011.13 1011.57 1012.00 1012.27 1012.51 1013.02 1013.34 1013.66 1014.07 1014.39 1014.67 1014.98 1015.41 1015.79 1016.02 1016.14 1016.07 1015.94 1015.87 1016.01 1016.11 1016.05 1015.78 1015.47 1015.14 1014.77 1014.38 1014.00 1013.63
1006.99 1007.21 1007.52 1007.94 1008.36 1008.55 1008.80 1008.83 1009.00 1009.21 1009.47 1009.57 1009.90 1010.31 1010.77 1011.10 1011.50 1011.85 1012.20 1012.53 1012.95 1013.30 1013.44 1013.78 1013.91 1014.28 1014.70 1015.10 1015.43 1015.57 1015.79 1015.85 1015.82 1015.80 1015.64 1015.66 1015.71 1015.49 1015.09 1014.82 1014.42 1014.09 1013.74 1013.32
1006.45 1006.93 1007.51 1007.88 1008.37 1008.62 1008.95 1009.20 1008.87 1008.97 1009.17 1009.55 1009.97 1010.28 1010.52 1010.82 1011.30 1011.74 1011.99 1012.51 1012.81 1013.16 1013.15 1013.40 1013.66 1013.86 1014.29 1014.64 1014.98 1015.18 1015.55 1015.66 1015.63 1015.56 1015.45 1015.26 1015.31 1015.23 1014.85 1014.57 1014.17 1013.81 1013.46 1013.03
1007.07 1007.34 1007.69 1007.73 1007.87 1008.31 1008.61 1008.67 1008.71 1008.82 1008.96 1009.47 1009.84 1010.24 1010.59 1010.70 1011.00 1011.53 1011.79 1011.97 1012.06 1012.33 1012.43 1012.77 1013.23 1013.65 1013.98 1014.28 1014.58 1014.88 1015.28 1015.44 1015.33 1015.41 1015.29 1015.12 1014.95 1014.91 1014.62 1014.29 1013.92 1013.51 1013.18 1012.82
1007.87 1008.15 1008.15 1008.09 1008.09 1007.94 1008.10 1008.38 1008.53 1008.57 1008.67 1009.15 1009.48 1009.70 1010.04 1010.26 1010.59 1011.07 1011.53 1011.69 1011.38 1011.66 1012.00 1012.33 1013.06 1013.35 1013.59 1013.85 1014.22 1014.65 1014.86 1014.99 1015.04 1015.16 1015.17 1015.02 1014.82 1014.67 1014.35 1014.05 1013.76 1013.38 1013.00 1012.65
1007.89 1008.18 1008.13 1008.16 1008.24 1007.90 1007.85 1007.94 1008.23 1008.34 1008.43 1008.68 1009.09 1009.32 1009.61 1009.91 1010.26 1010.60 1010.56 1010.78 1010.76 1010.75 1011.29 1011.77 1012.40 1012.77 1013.02 1013.24 1013.78 1014.29 1014.14 1014.54 1014.75 1014.94 1014.97 1014.82 1014.55 1014.32 1014.10 1013.86 1013.60 1013.22 1012.86 1012.45
1007.58 1007.58 1007.62 1007.69 1007.83 1007.61 1007.20 1007.32 1007.49 1007.83 1007.92 1008.07 1008.56 1008.87 1008.96 1008.95 1009.31 1009.92 1010.10 1009.84 1010.17 1010.17 1010.64 1011.05 1011.56 1011.98 1012.28 1012.83 1013.32 1013.76 1014.18 1014.42 1014.55 1014.78 1014.71 1014.49 1014.29 1014.05 1013.88 1013.64 1013.40 1013.01 1012.63 1012.17
1006.56 1006.41 1006.43 1006.53 1006.57 1007.11 1006.98 1006.26 1006.58 1006.75 1007.05 1007.26 1007.10 1007.86 1008.48 1008.76 1008.86 1008.79 1008.94 1008.86 1009.23 1009.60 1009.97 1010.40 1010.77 1011.20 1011.67 1012.39 1012.90 1013.38 1013.82 1014.31 1014.33 1014.36 1014.25 1013.83 1013.77 1013.65 1013.57 1013.37 1013.13 1012.80 1012.36 1011.81
1005.79 1005.68 1005.70 1006.05 1006.27 1005.63 1005.52 1005.63 1006.16 1006.51 1006.69 1006.98 1007.04 1006.35 1007.12 1007.49 1007.68 1007.84 1008.32 1008.55 1008.71 1009.06 1009.41 1009.72 1010.09 1010.61 1011.16 1011.80 1012.38 1012.88 1013.31 1013.59 1013.57 1013.71 1013.74 1013.52 1013.41 1013.37 1013.24 1013.03 1012.81 1012.52 1011.94 1011.36
1005.03 1004.93 1004.50 1004.59 1004.70 1004.69 1004.85 1005.27 1004.94 1005.15 1005.72 1005.90 1006.21 1006.34 1006.41 1006.71 1006.91 1007.24 1007.56 1007.90 1008.30 1008.44 1008.96 1009.37 1009.64 1010.05 1010.71 1011.34 1011.89 1012.31 1012.76 1013.07 1012.96 1013.02 1013.21 1013.10 1012.96 1012.84 1012.80 1012.64 1012.44 1012.11 1011.61 1011.02
1003.72 1003.62 1003.34 1003.51 1003.49 1003.35 1003.48 1003.67 1004.07 1003.88 1003.95 1004.18 1004.20 1004.42 1004.98 1005.84 1006.14 1006.37 1006.82 1007.27 1007.64 1007.92 1008.34 1008.78 1009.20 1009.59 1010.29 1010.86 1011.32 1011.69 1012.13 1012.38 1012.36 1012.50 1012.62 1012.67 1012.53 1012.38 1012.46 1012.29 1012.05 1011.68 1011.21 1010.68
Thickness
5560 5565 5563 5562 5565 5563 5558 5561 5550 5580 5565 5577 5575 5573 5573 5568 5561 5552 5547 5540 5534 5528 5522 5515 5506 5498 5491 5486 5482 5478 5475 5473 5470 5469 5468 5466 5466 5466 5466 5466 5466 5465 5464 5462
5541 5560 5562 5563 5571 5572 5571 5569 5567 5569 5574 5579 5577 5573 5571 5568 5566 5558 5552 5546 5539 5532 5523 5515 5506 5498 5491 5486 5480 5476 5472 5468 5465 5463 5461 5460 5459 5458 5457 5456 5455 5453 5452 5451
5543 5559 5556 5557 5587 5585 5576 5571 5565 5558 5575 5572 5569 5569 5566 5564 5562 5561 5558 5553 5545 5536 5527 5517 5509 5500 5490 5483 5478 5473 5469 5466 5462 5459 5456 5453 5451 5448 5446 5445 5444 5442 5441 5440
5537 5542 5533 5589 5600 5591 5582 5578 5572 5572 5571 5567 5566 5568 5568 5568 5563 5558 5556 5552 5546 5536 5528 5519 5509 5498 5488 5481 5476 5470 5465 5461 5457 5452 5449 5446 5444 5441 5437 5435 5432 5430 5430 5430
5513 5527 5572 5591 5593 5582 5576 5580 5586 5580 5575 5572 5569 5561 5558 5560 5563 5557 5554 5550 5542 5533 5523 5511 5501 5492 5485 5477 5471 5465 5460 5453 5448 5444 5439 5436 5432 5429 5427 5425 5422 5420 5419 5417
5538 5528 5547 5595 5590 5588 5583 5560 5593 5588 5580 5574 5564 5547 5550 5557 5556 5553 5550 5540 5533 5524 5514 5502 5492 5483 5474 5468 5461 5456 5449 5444 5439 5434 5428 5423 5419 5416 5414 5413 5410 5407 5405 5403
5539 5535 5564 5596 5587 5583 5569 5579 5589 5582 5574 5569 5556 5552 5558 5552 5548 5543 5538 5531 5521 5510 5499 5491 5481 5473 5464 5457 5450 5442 5437 5432 5426 5421 5415 5411 5407 5403 5401 5398 5395 5392 5389 5387
5536 5529 5543 5596 5583 5577 5590 5595 5588 5581 5576 5568 5561 5558 5554 5549 5543 5534 5528 5520 5512 5501 5491 5481 5474 5465 5457 5451 5442 5434 5426 5418 5412 5407 5402 5398 5392 5388 5383 5380 5377 5374 5372 5369
5571 5580 5602 5600 5602 5596 5595 5586 5584 5579 5573 5565 5557 5554 5548 5543 5539 5531 5520 5511 5505 5496 5484 5476 5468 5459 5451 5441 5433 5425 5416 5407 5400 5393 5386 5381 5376 5371 5366 5363 5359 5356 5353 5350
5587 5607 5602 5600 5598 5595 5589 5584 5582 5574 5565 5558 5551 5546 5542 5538 5534 5525 5516 5506 5498 5489 5478 5468 5459 5451 5443 5433 5423 5414 5405 5396 5388 5379 5373 5368 5363 5358 5352 5346 5341 5339 5336 5332
5596 5603 5600 5602 5603 5600 5594 5588 5579 5571 5565 5555 5548 5541 5538 5534 5531 5522 5512 5501 5491 5482 5472 5462 5453 5443 5434 5425 5415 5405 5395 5385 5375 5367 5360 5354 5349 5343 5339 5334 5331 5327 5322 5319
5600 5603 5598 5600 5599 5596 5586 5580 5574 5567 5560 5554 5547 5538 5534 5528 5525 5515 5503 5492 5482 5474 5465 5455 5445 5435 5426 5417 5406 5395 5383 5373 5364 5357 5350 5345 5339 5333 5329 5326 5322 5318 5313 5310
5608 5600 5593 5591 5583 5582 5574 5568 5565 5558 5550 5542 5536 5532 5530 5524 5519 5511 5495 5484 5474 5465 5456 5446 5436 5426 5417 5408 5397 5385 5373 5363 5355 5350 5342 5337 5331 5324 5320 5315 5310 5306 5302 5300
5600 5593 5589 5583 5577 5570 5566 5559 5553 5546 5537 5531 5526 5524 5523 5517 5510 5499 5487 5477 5467 5458 5448 5439 5429 5420 5410 5400 5388 5377 5366 5359 5349 5342 5335 5329 5324 5318 5312 5307 5303 5298 5294 5292
5591 5582 5583 5573 5564 5560 5552 5542 5535 5528 5525 5522 5517 5512 5510 5502 5495 5488 5480 5468 5458 5447 5439 5430 5420 5412 5403 5392 5380 5369 5359 5350 5343 5336 5329 5323 5318 5312 5305 5300 5296 5294 5292 5289
5574 5568 5570 5567 5558 5550 5541 5533 5524 5519 5518 5514 5509 5500 5495 5489 5482 5475 5466 5457 5446 5437 5427 5420 5412 5404 5395 5385 5373 5362 5353 5347 5341 5332 5324 5316 5311 5306 5300 5295 5291 5289 5287 5285
5546 5544 5548 5544 5538 5535 5530 5527 5523 5517 5512 5504 5498 5492 5484 5475 5467 5459 5453 5447 5437 5430 5421 5412 5404 5396 5387 5377 5366 5356 5348 5341 5336 5329 5321 5311 5303 5298 5294 5289 5287 5285 5282 5279
5549 5547 5538 5534 5527 5524 5519 5517 5511 5507 5500 5495 5488 5479 5470 5462 5457 5449 5442 5435 5427 5419 5413 5405 5398 5389 5379 5370 5361 5352 5343 5335 5328 5321 5316 5308 5300 5294 5290 5287 5285 5282 5279 5274
5537 5530 5523 5521 5513 5507 5503 5496 5496 5490 5485 5480 5473 5467 5459 5452 5445 5438 5433 5424 5416 5408 5404 5397 5390 5383 5373 5365 5356 5346 5335 5328 5322 5315 5310 5306 5295 5288 5286 5284 5282 5279 5276 5271
5517 5511 5505 5504 5501 5496 5491 5487 5486 5481 5477 5468 5461 5453 5447 5443 5437 5429 5423 5417 5412 5405 5400 5391 5382 5374 5366 5358 5350 5338 5328 5322 5318 5309 5304 5298 5291 5284 5282 5281 5279 5278 5274 5268
5480 5477 5481 5484 5483 5483 5479 5476 5472 5469 5464 5457 5451 5446 5440 5434 5427 5420 5413 5408 5406 5400 5392 5385 5372 5365 5358 5351 5342 5331 5324 5319 5311 5302 5296 5291 5285 5280 5278 5277 5275 5274 5271 5266
5466 5463 5465 5463 5466 5469 5467 5464 5460 5457 5452 5446 5441 5436 5430 5422 5417 5410 5409 5404 5399 5396 5388 5379 5367 5359 5352 5346 5335 5326 5322 5312 5303 5296 5289 5285 5280 5277 5274 5273 5271 5271 5268 5264
5456 5458 5454 5452 5454 5458 5461 5457 5452 5447 5442 5437 5430 5424 5421 5419 5412 5404 5399 5398 5392 5389 5381 5374 5364 5356 5349 5339 5329 5321 5312 5303 5297 5291 5286 5281 5278 5274 5271 5270 5269 5269 5267 5264
5456 5456 5450 5445 5444 5440 5446 5450 5444 5440 5434 5429 5428 5418 5409 5403 5401 5400 5396 5393 5388 5382 5376 5368 5361 5353 5344 5331 5322 5313 5305 5297 5292 5286 5282 5282 5276 5271 5268 5267 5267 5267 5266 5264
5441 5441 5436 5430 5429 5440 5441 5435 5428 5423 5419 5417 5414 5417 5407 5401 5400 5395 5388 5383 5380 5374 5368 5363 5356 5347 5336 5325 5315 5307 5299 5292 5288 5282 5278 5277 5272 5267 5265 5266 5266 5266 5266 5267
5425 5429 5432 5429 5430 5430 5427 5420 5423 5419 5412 5410 5406 5402 5398 5393 5390 5387 5380 5376 5370 5367 5359 5353 5347 5339 5328 5318 5309 5302 5294 5287 5285 5280 5275 5272 5270 5266 5264 5264 5265 5266 5267 5268
5413 5418 5416 5415 5417 5421 5419 5416 5410 5413 5413 5409 5411 5405 5396 5386 5383 5381 5374 5368 5362 5359 5352 5345 5338 5332 5321 5311 5304 5297 5289 5283 5281 5276 5272 5268 5266 5263 5262 5263 5264 5267 5268 5269